Погода в Селечне

Россия / Брянская область     52°22′54″N   34°22′28″E
темп.,
°C
ветер,
м/с
пор.,
м/с
влажн.,
%
обл.,
%
осадки,
мм/ч
давл.,
гПа
погр.,
м
7 мая, пт
пт700:00+6з2290100 0.1 101224
03:00+4зюз2290100 0.1 101328
06:00+4юз22877 0.0 101441
09:00+10ююз36595 0.0 1014545
12:00+15ююз563984 0.0 10142024
15:00+15ююз5743100 0.0 10132346
18:00+13ю4957100 0.0 1012796
21:00+12ююв51262100 0.0 10101231
8 мая, сб
сб800:00+9ююв51489100 1.4 1008992
03:00+9ю61395100 6.0 1005930
06:00+10ю41298100 4.6 1003723
09:00+10з4995100 8.9 1004571
12:00+8зюз41091100 1.3 1006629
15:00+11зюз7106432 1.4 10071621
18:00+5зсз61492100 0.1 1011960
21:00+6зсз49766 0.1 1013962
9 мая, вс
вс900:00+4з311845 0.0 1016433
03:00+2з311895 0.0 1017333
06:00+2з310925 0.0 1019337
09:00+8сз47625 0.0 10211031
12:00+11ссз574460 0.0 10222089
15:00+13ссз573738 0.0 10232528
18:00+12ссз36469 0.0 10242211
21:00+6сз22754 0.0 102725
10 мая, пн
пн1000:00+4сз11795 0.0 102910
03:00+3ссв01785 0.0 103010
06:00+4с00756 0.0 103110
09:00+12св01495 0.0 1032525
12:00+16вюв11355 0.0 10311658
15:00+17вюв11330 0.0 10301918
18:00+15в22450 0.0 1030714
21:00+9вюв22650 0.0 103111
11 мая, вт
вт1100:00+7вюв11760 0.0 103111
03:00+6всв22780 0.0 103115
06:00+6всв24803 0.0 103175
09:00+13всв36545 0.0 1031657
12:00+16всв57420 0.0 10291149
15:00+18в46420 0.0 10271173
18:00+17всв46564 0.0 1026911
21:00+11св398467 0.0 1026214